Regional Weather Roundup
Issued by NWS Midland/Odessa, TX

Skip options and go directly to product.
Home | Oldest Version | Previous Version | Current Version | All | Text Only | Save Text | Print | Product List | Glossary On

Skip product version selection by date and time.   
372
ASUS44 KMAF 232110
RWRMAF
MIDLAND AREA WEATHER ROUNDUP
NATIONAL WEATHER SERVICE MIDLAND TX
400 PM CDT THU OCT 23 2014

...IN SOUTHWEST TEXAS AND SOUTHEAST NEW MEXICO...

CITY           SKY/WX    TMP DP  RH WIND       PRES   REMARKS
ALPINE         SUNNY     77  47  35 CALM      30.22F
ANDREWS        FAIR      78  56  46 SW5       30.10F
ARTESIA        NOT AVBL
BIG SPRING     SUNNY     76  62  61 CALM      30.12S
CARLSBAD       SUNNY     74  60  61 SE8       30.09F
DRYDEN           N/A     78  61  55 SE7       30.08F
FORT STOCKTON  SUNNY     80  56  43 CALM      30.10F
GUAD PASS      SUNNY     75  49  39 SW20      30.22F
HOBBS          SUNNY     77  52  41 SE5       30.12F
MARFA          MOSUNNY   75  48  38 SW12      30.21F
MIDLAND AIRPK  SUNNY     80  58  46 W3        30.09F
MIDLAND INTL   SUNNY     82  56  40 CALM      30.08F
ODESSA         SUNNY     80  56  43 W6        30.10F
PECOS          SUNNY     77  62  58 NW3       30.07F
PRESIDIO       FAIR      81  58  45 W6        30.09F
SEMINOLE       SUNNY     77  60  56 SE6       30.11F
SNYDER         SUNNY     70  61  74 SW3       30.10F
WINK           SUNNY     78  32  18 VRB5      30.07
$$
...OTHER STATIONS IN TEXAS...

CITY           SKY/WX    TMP DP  RH WIND       PRES   REMARKS
ABILENE        SUNNY     82  59  45 S10       30.07F
AMARILLO       SUNNY     77  58  51 SE10      30.08F
AUSTIN         PTSUNNY   81  60  48 NE7       30.07F
BROWNSVILLE    MOSUNNY   85  68  56 NE12      30.02S
CORPUS CHRISTI MOSUNNY   81  63  54 E9        30.04F
DALLAS FTW     MOSUNNY   78  55  44 VRB6      30.07F
DEL RIO        CLOUDY    78  65  63 SE9       30.07S
EL PASO        FAIR      78  48  34 CALM      30.13F
HOUSTON INT    MOSUNNY   75  55  49 NE5       30.07S
LUBBOCK        MOSUNNY   73  58  59 S8        30.08F
SAN ANGELO     PTSUNNY   76  61  59 S12G18    30.09F
SAN ANTONIO    MOSUNNY   84  58  40 W5        30.07F
WACO           SUNNY     80  56  43 SW3       30.08F
WICHITA FALLS  NOT AVBL
$$
...OTHER LOCATIONS IN NEW MEXICO...

CITY           SKY/WX    TMP DP  RH WIND       PRES   REMARKS
ALAMAGORDO     NOT AVBL
ALBUQUERQUE    SUNNY     72  36  26 VRB3      30.21F
CANNON AFB     SUNNY     81  39  22 W18       30.10F
CLOVIS         SUNNY     81  39  22 W17       30.12F
HOLLOMAN AFB   MOSUNNY   77  48  35 VRB3      30.14F
ROSWELL        SUNNY     78  57  48 S10       30.09F
RUIDOSO        SUNNY     68  39  34 NW12G17   30.30F
SANTA FE       SUNNY     69  33  26 VRB3      30.23F
TRUTH OR CONSE FAIR      78  40  25 MISG      30.18F
TUCUMCARI      SUNNY     82  34  17 W13       30.07F
$$

USA.gov is the U.S. government's official web portal to all federal, state and local government web resources and services.